Location: Gilmore
(35.4118°N, 90.2784°W)
Time: 04:24:09
(UTC+00:00)

Daily predictions for brighter satellites

Satellite Brightness Start Highest point End
(mag) Time Altitude Azimuth Time Altitude Azimuth Time Altitude Azimuth
Milstar 3 4.4 00:38:11 10° SSW 00:45:48 36° SSE 00:58:33 10° E
Meteor 1-16 Rocket 4.4 00:48:12 10° SSE 00:53:40 50° E 00:59:00 10° NNE
COSMOS 2406 3.4 00:49:37 10° NNW 00:55:24 81° WSW 01:01:07 10° SSE
Cosmos 1331 Rocket 4.1 00:55:31 10° SSW 01:00:43 85° WNW 01:06:00 10° NNE
Cosmos 1953 2.8 00:58:04 10° SSE 01:01:32 35° E 01:05:02 10° NNE
CZ-4B R/B 2.8 00:58:06 10° SSE 01:01:52 56° ENE 01:05:27 10° N
Cosmos 1850 Rocket 4.3 00:57:47 10° N 01:02:56 50° ENE 01:07:59 10° SE
Cosmos 2297 3.8 00:59:40 10° SSW 01:05:19 86° WNW 01:11:02 10° NNE
SL-08 R/B 4.4 01:03:21 10° N 01:07:54 50° WNW 01:12:30 10° SSW
Meteor PRIRODA 4.0 01:04:38 10° S 01:08:00 62° W 01:11:25 10° NNW
CZ-4B DEB 4.2 01:03:38 10° SSE 01:09:07 68° ENE 01:14:38 10° N
ADEOS Rocket 3.2 01:04:42 10° S 01:10:18 69° WSW 01:15:47 10° NNW
NOSS 3-1 (A) 4.5 01:11:26 10° SE 01:13:25 12° ESE 01:15:29 10° E
Cosmos 2369 Rocket 2.2 01:09:01 10° SSW 01:14:42 82° ESE 01:20:24 10° NNE
SJ 16-02 2.9 01:11:57 10° NNE 01:14:57 18° ENE 01:17:18 12° ESE
ADEOS 4.0 01:10:09 10° S 01:15:19 68° WSW 01:20:32 10° NNW
DELTA 2 DEB (DPAF) 4.5 01:12:14 10° NNE 01:16:12 39° E 01:20:09 10° SSE
NOSS 2-2 (C) 4.4 01:14:42 10° SW 01:18:04 40° WNW 01:21:04 10° NNE
SL-8 Rocket 4.3 01:13:37 10° N 01:19:29 43° E 01:25:16 10° SSE
Iridium 82 4.4 01:15:59 10° N 01:19:30 75° E 01:23:10 10° S
SPOT 1/Viking Rocket 3.7 01:18:31 10° SSE 01:23:35 55° ENE 01:28:40 10° N
Cosmos 2263 4.1 01:18:00 10° S 01:23:36 70° ESE 01:29:11 10° NNE
Cosmos 2098 Rocket 4.4 01:19:42 10° SSE 01:24:20 27° E 01:28:20 10° NE
APEX 4.1 01:21:32 10° NW 01:24:31 36° WSW 01:27:15 10° S
CZ-4B R/B 3.4 01:23:28 10° SSE 01:28:57 55° ENE 01:34:26 10° N
Okean-O 4.3 01:28:34 14° E 01:29:50 16° ENE 01:32:25 10° NNE
Cosmos 2341 Rocket 4.1 01:24:32 10° N 01:30:45 60° E 01:36:53 10° SSE
Cosmos 1674 Rocket 4.0 01:26:40 10° NNW 01:31:04 64° W 01:35:27 10° S
Cosmos 1825 2.1 01:28:03 10° N 01:31:26 51° E 01:34:23 13° SSE
USA 234 3.5 01:28:21 14° ESE 01:33:53 60° NE 01:40:17 10° NW
NOSS 3-1 (C) 2.9 01:31:44 10° SSW 01:36:15 57° ESE 01:41:27 10° NE
Cosmos 2082 Rocket 4.3 01:34:14 10° NW 01:38:55 27° WSW 01:43:33 10° SSW
Hubble Space Telescope 1.8 01:36:39 10° WSW 01:40:08 29° S 01:41:39 22° SE
Resurs 1-3 3.9 01:37:45 10° S 01:42:03 66° WSW 01:46:24 10° NNW
[s.n.70599] 3.7 01:43:10 10° W 01:45:26 30° SW 01:46:07 25° S
Cosmos 2366 rocket 4.0 01:44:02 10° N 01:50:22 69° E 01:56:41 10° SSE
Cosmos 1025 Rocket 2.9 01:47:37 10° N 01:51:59 77° E 01:55:30 16° SSE
Okean O Rocket 1.7 01:49:28 23° SE 01:51:59 55° ENE 01:56:14 10° N
ATLAS 3B R/B 2.9 01:51:01 10° S 01:57:31 48° ESE 02:04:30 10° NE
Resurs 01 Rocket 1.5 01:55:01 23° SSE 01:57:39 67° ENE 02:02:02 10° N
Cosmos 2218 Rocket 4.0 01:51:18 10° N 01:57:42 76° E 02:03:55 11° S
CARTOSAT-1 3.5 01:58:16 29° SSE 02:00:17 63° ENE 02:04:31 10° N
Cosmos 1346 Rocket 3.8 01:57:26 10° SSW 02:01:06 45° W 02:04:47 10° N
USA 281 3.4 01:59:34 26° SE 02:03:12 53° ENE 02:09:34 10° NNW
Cosmos 1975 Rocket 3.1 01:59:52 10° N 02:04:06 52° E 02:05:11 41° SE
Cosmos 1821 Rocket 4.2 02:00:01 10° N 02:05:58 48° E 02:08:32 31° SE
USA 129 4.2 02:04:03 10° N 02:05:08 19° NNW 02:05:08 19° NNW
Cosmos 1959 Rocket 4.4 02:01:44 10° N 02:07:53 87° E 02:13:23 14° S
Cosmos 1328 4.2 02:05:38 10° NNW 02:09:21 58° W 02:11:46 20° SSW
OAO 3 Rocket 3.1 02:07:04 10° W 02:11:58 84° S 02:13:29 45° ESE
Meteor 1-21 Rocket 4.5 02:09:18 10° NNW 02:15:13 76° W 02:20:11 15° S
USA 186 3.4 02:16:16 19° SSW 02:17:51 30° W 02:20:37 10° NNW
DELTA 2 R/B (1) 3.8 02:13:07 10° WNW 02:18:38 59° SSW 02:20:22 41° SSE
CZ-4 R/B 3.7 02:19:42 10° SW 02:22:45 21° W 02:25:47 10° NW
ATLAS 5 CENTAUR R/B 1.5 02:20:29 10° SW 02:23:44 55° WNW 02:27:09 10° NNE
SPOT 5 3.6 02:24:44 39° ENE 02:24:58 40° ENE 02:29:54 10° N
Meteor 1-11 4.1 02:29:20 10° N 02:35:01 82° E 02:36:33 51° SSE
ERS-1 Rocket 4.1 02:36:16 28° NE 02:36:16 28° NE 02:39:38 10° N
Celestis-02/Orion 38 4.5 02:40:45 64° ENE 02:40:57 64° ENE 02:45:58 10° NNW
MOS 1 4.2 02:45:27 63° SSE 02:46:26 86° ENE 02:52:10 10° NNW
Okean 2 Rocket 4.2 02:52:04 35° NNE 02:52:04 35° NNE 02:54:44 10° N
Cosmos 1934 Rocket 4.3 02:46:06 10° N 02:51:27 46° ENE 02:51:27 46° ENE
SJ 16-02 2.7 02:49:30 10° NW 02:53:21 31° W 02:54:06 29° WSW
OAO 1 Rocket 4.4 02:50:20 10° W 02:55:16 77° WSW 02:55:16 77° WSW
IRS-1C Rocket 4.0 02:56:50 78° NNE 02:56:50 78° NNE 03:01:51 10° N
Cosmos 2297 Rocket 4.1 02:57:03 10° NNE 02:59:36 16° NE 02:59:36 16° NE
NOSS 3-1 (A) 3.4 02:58:36 10° SW 03:03:16 57° NW 03:08:42 10° NNE
MetOp-B 4.1 03:05:02 79° WNW 03:05:02 79° WNW 03:10:09 10° NNW
Okean-O 3.7 03:06:02 40° W 03:06:02 40° W 03:10:00 10° NNW
Terra 3.2 03:09:26 30° NNE 03:09:26 30° NNE 03:12:00 10° N
USA 234 4.3 03:15:43 31° SSW 03:17:00 33° SW 03:22:48 10° WNW
IRS-1A Rocket 4.5 03:20:51 71° W 03:20:51 71° W 03:26:30 10° NNW
Ariane Rocket 4.2 03:27:13 36° N 03:27:13 36° N 03:30:11 10° N
ATLAS 3B R/B 4.3 03:42:10 10° WSW 03:48:26 34° NW 03:55:07 10° NNE
Cosmos 2227 Rocket 4.3 04:10:56 10° N 04:12:58 21° N 04:12:58 21° N
CZ-4C R/B 4.0 04:31:06 10° NNW 04:36:24 38° NNE 04:36:24 38° NNE
Cosmos 2297 Rocket 4.4 04:39:36 10° NNW 04:41:24 21° NNW 04:41:24 21° NNW
CENTAUR R/B 4.1 05:08:59 10° NNW 05:15:26 42° NNE 05:15:26 42° NNE
ADEOS II 4.3 07:34:44 10° NE 07:36:44 21° NE 07:36:44 21° NE
CZ-2D R/B 4.0 07:47:09 10° NNE 07:49:32 27° NNE 07:49:32 27° NNE
SL-16 R/B 4.0 07:51:52 29° E 07:52:57 31° ENE 07:58:17 10° N
COSMOS 2428 3.9 08:10:38 38° NNE 08:10:38 38° NNE 08:14:01 10° NNE
CZ-2C R/B 4.0 08:17:17 33° N 08:17:17 33° N 08:20:12 10° N
Cosmos 2237 Rocket 3.5 08:16:42 34° E 08:16:42 34° E 08:20:54 10° NE
Lacrosse 5 4.2 08:21:30 16° NNW 08:21:30 16° NNW 08:23:40 10° N
ATLAS 2AS CENTAUR R/B 4.5 08:19:52 21° SE 08:21:59 24° ESE 08:27:34 10° ENE
CZ-2C R/B 4.3 08:20:23 10° NNE 08:23:30 38° NNE 08:23:30 38° NNE
ALOS 4.0 08:21:23 10° NNE 08:23:57 30° NE 08:23:57 30° NE
Resurs 1-4 Rocket 3.7 08:27:39 10° N 08:30:10 26° NNW 08:30:10 26° NNW
Cosmos 2333 Rocket 4.4 08:34:50 14° NNW 08:34:50 14° NNW 08:36:26 10° NNW
Nadezhda 4 Rocket 4.2 08:44:01 59° NNW 08:44:01 59° NNW 08:49:02 10° N
H-2A R/B 4.3 08:46:25 36° S 08:46:25 36° S 09:12:42 10° ESE
NOSS 0 Rocket 4.0 08:48:14 70° NNW 08:48:14 70° NNW 08:53:49 10° NNE
Cosmos 1680 Rocket 4.4 08:47:51 42° ESE 08:48:07 42° ESE 08:53:06 10° NNE
Cosmos 2278 Rocket 3.2 08:47:35 10° N 08:53:02 45° ENE 08:58:25 10° SE
Cosmos 1428 Rocket 4.3 08:53:48 85° SSW 08:54:00 89° W 09:00:19 10° N
Cosmos 2219 Rocket 4.2 08:55:50 16° NW 08:55:50 16° NW 08:58:06 10° NNW
BREEZE-M DEB (TANK) 3.8 09:00:45 81° N 09:00:45 81° N 09:10:59 10° NE
RESURS DK-1 4.4 09:04:22 21° N 09:04:22 21° N 09:06:01 10° N
SL-16 R/B 3.9 09:03:20 17° SSE 09:06:24 28° ESE 09:11:07 10° NE
Cosmos 1151 Rocket 3.7 09:07:55 49° NNE 09:07:55 49° NNE 09:11:08 10° N
METEOR-M 4.4 09:05:19 10° NNE 09:10:38 65° ESE 09:11:50 50° SSE
CZ-2C R/B 3.3 09:07:38 10° NNE 09:12:38 48° E 09:14:38 32° SSE
BREEZE-M DEB (TANK) 4.5 09:13:45 45° WSW 09:16:40 77° NNW 09:50:52 10° ENE
Cosmos 921 Rocket 4.0 09:16:42 36° SE 09:17:27 40° E 09:21:28 10° NNE
ADEOS II 3.5 09:14:35 10° NNW 09:17:38 24° NW 09:17:38 24° NW
Cosmos 1626 4.1 09:18:47 19° ESE 09:19:35 21° E 09:22:07 10° NE
Meteor 1-19 Rocket 4.3 09:20:01 59° W 09:20:20 59° W 09:26:15 10° N
Cosmos 923 Rocket 4.0 09:23:20 61° WNW 09:23:23 61° WNW 09:28:35 10° N
Cosmos 1975 4.3 09:20:23 10° NNE 09:23:54 33° E 09:27:22 10° SE
Cosmos 1092 Rocket 3.9 09:24:59 54° SW 09:26:05 63° W 09:32:11 10° N
CZ-2D R/B 4.2 09:29:23 10° NW 09:30:50 13° NW 09:30:50 13° NW
Cosmos 2026 Rocket 4.1 09:32:11 46° WSW 09:33:33 55° W 09:39:46 10° N
Envisat 2.8 09:28:30 10° N 09:33:35 79° WNW 09:34:51 51° SSW
BREEZE-M DEB (TANK) 3.4 09:34:04 39° W 09:35:36 49° NW 09:38:43 10° NE
SL-16 R/B 3.1 09:36:56 36° W 09:36:56 36° W 09:42:01 10° NNW
NOSS 2-2 (E) 4.4 09:31:17 10° NNW 09:36:25 82° ENE 09:43:48 10° SSE
EO 1 Delta rocket 4.2 09:37:21 10° N 09:41:43 43° WNW 09:41:49 43° W
Meteor 1-18 Rocket 4.2 09:39:20 22° S 09:43:00 80° E 09:48:42 10° N
Cosmos 1666 Rocket 3.8 09:41:00 10° N 09:45:27 71° E 09:49:52 10° SSE
CZ-4 R/B 4.3 09:45:06 10° N 09:49:29 40° WNW 09:49:59 38° W
NOSS 2-2 (D) 4.4 09:45:59 10° NNW 09:51:00 79° ENE 09:58:13 10° SE
Meteor 2-4 Rocket 3.5 09:48:37 31° SSW 09:51:13 70° W 09:56:41 10° N
Thor Agena Rocket 3.4 09:46:18 10° N 09:51:19 73° WNW 09:53:50 30° SSW
Cosmos 1943 Rocket 2.2 09:46:31 10° NNW 09:52:13 81° ENE 09:57:53 10° SSE
YAOGAN 6 2.3 09:49:56 10° N 09:53:02 61° WNW 09:53:02 61° WNW
H-2A R/B 3.5 09:50:35 10° NNE 09:55:11 35° E 09:59:51 10° SSE
BlueWalker 3 3.9 09:52:48 10° NNW 09:56:10 28° NE 09:59:30 10° E
NOAA 11 4.3 09:54:09 10° N 09:59:27 55° WNW 10:02:18 27° SW
Cosmos 2237 Rocket 3.3 09:58:31 25° W 09:59:49 27° WNW 10:04:36 10° N
ALOS 4.1 09:59:57 10° NNW 10:02:16 15° WNW 10:02:16 15° WNW
Cosmos 2112 Rocket 4.5 10:01:06 31° WSW 10:03:00 43° WNW 10:08:05 10° N
Cosmos 1340 Rocket 3.5 10:04:12 31° WNW 10:04:12 31° WNW 10:07:38 10° NNW
Cosmos 1867 4.2 10:01:15 10° NW 10:06:02 31° WSW 10:10:46 10° S
DMSP B5D2-2 4.0 10:03:18 10° SSE 10:08:29 89° WSW 10:13:43 10° NNW
Cosmos 1328 Rocket 3.9 10:08:30 29° SW 10:10:16 44° W 10:14:31 10° N
ATLAS 2AS CENTAUR R/B 2.9 10:07:19 22° SW 10:12:24 64° WNW 10:19:36 10° NNE
Cosmos 1805 3.6 10:09:19 10° NNW 10:12:46 37° W 10:13:52 30° SW
CRYOSAT 2 4.4 10:09:03 10° N 10:13:57 84° E 10:18:48 10° S
Cosmos 1707 4.4 10:12:58 10° SSE 10:16:16 33° E 10:19:36 10° NNE
SWAS 4.3 10:14:56 10° NNW 10:19:07 71° WSW 10:23:17 10° SSE
Chandra Rocket (1) 3.0 10:18:55 21° SSW 10:20:32 32° SSE 10:26:45 10° E
IRS-1D 4.1 10:17:50 10° N 10:22:32 39° WNW 10:26:05 17° SW
Cosmos 1633 Rocket 3.2 10:19:13 10° NNW 10:23:24 49° W 10:27:35 10° SSW
S3M 4.2 10:18:38 10° N 10:24:49 78° E 10:31:03 10° S
Cosmos 1048 Rocket 4.0 10:21:02 10° SSW 10:26:22 90° NNE 10:31:41 10° NNE
Cosmos 1943 4.5 10:22:11 10° S 10:27:28 41° ESE 10:32:46 10° NE
Cosmos 2266 Rocket 3.9 10:22:53 10° SSW 10:28:59 74° W 10:35:03 10° N
Cosmos 1655 Rocket 4.2 10:23:16 10° S 10:29:27 77° E 10:35:40 10° N
SL-08 ROCKET BODY 4.3 10:28:40 10° S 10:34:31 78° W 10:40:30 10° N
Cosmos 2278 Rocket 3.3 10:32:32 10° NW 10:36:41 21° W 10:40:49 10° SSW
Cosmos 1461 4.0 10:39:30 10° WNW 10:42:09 18° WSW 10:44:48 10° SSW
ARIANE 5 R/B 3.7 10:37:20 10° NNE 10:42:22 47° E 10:47:22 10° S
Cosmos 1674 2.4 10:40:40 10° SSW 10:44:02 58° W 10:47:26 10° N
USA 308 3.6 10:41:23 14° W 10:44:06 34° NW 10:47:41 10° NNE
Delta 2 Rocket 4.4 10:40:59 11° SW 10:45:22 43° SSE 10:49:45 10° E
Cosmos 2056 Rocket 3.9 10:42:07 10° NNW 10:47:11 42° WSW 10:52:14 10° S
Cosmos 494 Rocket 4.5 10:42:39 10° SW 10:47:29 40° WNW 10:52:20 10° N
ATLAS 5 CENTAUR R/B 3.5 10:42:33 11° WSW 10:47:36 17° SSW 10:50:42 10° SSE
SL-16 R/B 2.9 10:45:15 10° SW 10:50:18 35° WNW 10:55:27 10° N
CZ-2C R/B 4.0 10:46:52 10° NNW 10:50:20 18° WNW 10:53:46 10° WSW
Cosmos 2315 Rocket 4.1 10:45:20 10° N 10:51:34 84° E 10:57:45 10° S
ARGOS 4.0 10:46:37 10° NNE 10:51:53 55° E 10:57:06 10° S
Cosmos 1766 3.5 10:49:21 10° NNW 10:52:49 40° W 10:56:16 10° SSW
Cosmos 1939 Rocket 2.6 10:49:10 10° N 10:52:55 72° WNW 10:56:41 10° SSW
Cosmos 1626 3.8 10:51:53 11° WSW 10:53:18 13° WNW 10:55:01 10° NW
Cosmos 1452 Rocket 4.2 10:49:10 10° N 10:54:22 59° ENE 10:59:31 10° SSE
Cosmos 1340 4.1 10:52:53 10° NW 10:54:54 15° W 10:56:55 10° SW
KORONAS-FOTON 3.9 10:52:36 10° SSW 10:56:11 49° W 10:59:45 10° N
Cosmos 1656 Rocket 3.9 10:55:24 10° NNW 11:00:50 77° ENE 11:06:14 10° SSE
NOSS 3-1 (C) 4.4 10:54:36 10° NNW 11:02:30 87° ENE 11:11:48 10° SSE
ASTRO E2 3.6 11:01:34 10° SW 11:04:44 32° SSE 11:07:55 10° ESE
CZ-3 R/B 3.1 11:05:35 10° WSW 11:22:24 45° S 11:28:06 10° ESE
